Location: Allen Fire Department Station 4
(33.1073°N, 96.6988°W)
Time: 16:53:44
(UTC+00:00)

Aurora 2 Rocket - Pass Details

Date: 05 July 2022
Orbit: 389 x 1718 km, 25.0° (Epoch: 06 August)

Event Time Altitude Azimuth Distance (km) Brightness Sun altitude
Rises 02:54:44 0° 243° (WSW) 4,945 7.5 -13.9°
Reaches altitude 10° 02:58:27 10° 237° (WSW) 3,876 6.8 -14.5°
Maximum altitude 03:07:51 43° 171° (S) 1,899 4.6 -16.0°
Enters shadow 03:12:49 22° 114° (ESE) 2,436 5.0 -16.8°
